date,City,No. Stations,Air Quality,Index Value,Prominent Pollutant
2015-11-27,Jaipur,1.0,Moderate,168,PM10
2015-11-28,Jaipur,1.0,Very Poor,306,PM2.5
2015-11-29,Jaipur,1.0,Very Poor,305,PM2.5
2015-11-30,Jaipur,1.0,Very Poor,348,PM2.5
2015-12-01,Jaipur,1.0,Very Poor,379,PM2.5
2015-12-02,Jaipur,1.0,Very Poor,381,PM2.5
2015-12-04,Jaipur,1.0,Good,41,NO2
2015-12-05,Jaipur,1.0,Very Poor,327,PM2.5
2015-12-07,Jaipur,1.0,Very Poor,333,PM2.5
2015-12-08,Jaipur,1.0,Very Poor,352,PM2.5
2015-12-09,Jaipur,1.0,Poor,286,PM2.5
2015-12-10,Jaipur,1.0,Poor,278,PM2.5
2015-12-11,Jaipur,1.0,Very Poor,311,PM2.5
2015-12-12,Jaipur,1.0,Poor,231,PM2.5
2015-12-13,Jaipur,1.0,Poor,287,PM2.5
2015-12-14,Jaipur,1.0,Poor,224,PM2.5
2015-12-15,Jaipur,1.0,Poor,264,PM2.5
2015-12-16,Jaipur,1.0,Very Poor,312,PM2.5
2015-12-24,Jaipur,1.0,Very Poor,321,PM2.5
2015-12-30,Jaipur,1.0,Very Poor,308,PM2.5
2015-12-31,Jaipur,1.0,Poor,292,PM2.5
2016-01-02,Jaipur,1.0,Very Poor,337,PM2.5
2016-01-05,Jaipur,1.0,Very Poor,335,PM2.5
2016-01-10,Jaipur,1.0,Very Poor,328,PM2.5
2016-01-14,Jaipur,1.0,Very Poor,314,PM2.5
2016-01-18,Jaipur,1.0,Very Poor,344,PM2.5
2016-01-19,Jaipur,1.0,Poor,258,PM2.5
2016-01-20,Jaipur,1.0,Very Poor,325,PM2.5
2016-01-21,Jaipur,1.0,Poor,247,PM2.5
2016-01-22,Jaipur,1.0,Poor,286,PM2.5
2016-01-23,Jaipur,1.0,Poor,256,PM2.5
2016-01-24,Jaipur,1.0,Poor,284,PM2.5
2016-01-25,Jaipur,1.0,Poor,255,PM2.5
2016-01-26,Jaipur,1.0,Poor,281,PM2.5
2016-02-02,Jaipur,1.0,Poor,222,PM2.5
2016-02-04,Jaipur,1.0,Poor,264,PM2.5
2016-02-05,Jaipur,1.0,Poor,275,PM2.5
2016-02-06,Jaipur,1.0,Moderate,161,PM2.5
2016-02-07,Jaipur,1.0,Moderate,170,PM2.5
2016-02-09,Jaipur,1.0,Poor,242,PM2.5
2016-02-10,Jaipur,1.0,Poor,286,PM2.5
2016-02-11,Jaipur,1.0,Poor,201,PM2.5
2016-02-12,Jaipur,1.0,Poor,273,PM2.5
2016-02-13,Jaipur,1.0,Poor,210,PM2.5
2016-02-14,Jaipur,1.0,Poor,218,PM2.5
2016-02-16,Jaipur,1.0,Moderate,148,PM2.5
2016-02-17,Jaipur,1.0,Moderate,171,PM2.5
2016-02-19,Jaipur,1.0,Poor,221,PM2.5
2016-02-20,Jaipur,1.0,Poor,258,PM2.5
2016-02-21,Jaipur,1.0,Moderate,166,PM2.5
2016-02-22,Jaipur,1.0,Moderate,176,PM10
2016-02-23,Jaipur,1.0,Poor,227,PM2.5
2016-02-24,Jaipur,1.0,Very Poor,301,PM2.5
2016-02-25,Jaipur,1.0,Poor,263,PM2.5
2016-02-26,Jaipur,1.0,Poor,204,PM2.5
2016-02-27,Jaipur,1.0,Moderate,194,PM10
2016-03-01,Jaipur,1.0,Moderate,166,PM10
2016-03-02,Jaipur,1.0,Poor,249,PM10
2016-03-03,Jaipur,1.0,Poor,201,PM10
2016-03-04,Jaipur,1.0,Poor,294,PM2.5
2016-03-05,Jaipur,1.0,Moderate,161,PM10
2016-03-09,Jaipur,1.0,Moderate,182,PM2.5
2016-03-10,Jaipur,1.0,Poor,209,PM10
2016-03-13,Jaipur,1.0,Moderate,136,PM2.5
2016-03-15,Jaipur,1.0,Poor,254,PM2.5
2016-03-16,Jaipur,1.0,Poor,236,PM2.5
2016-03-17,Jaipur,1.0,Poor,211,PM10
2016-03-18,Jaipur,1.0,Moderate,142,PM10
2016-03-19,Jaipur,1.0,Moderate,149,PM10
2016-03-20,Jaipur,1.0,Poor,205,PM10
2016-03-21,Jaipur,1.0,Moderate,168,PM10
2016-03-22,Jaipur,1.0,Moderate,122,PM10
2016-03-23,Jaipur,1.0,Moderate,154,PM10
2016-03-24,Jaipur,1.0,Moderate,127,PM2.5
2016-03-25,Jaipur,1.0,Moderate,134,PM10
2016-03-26,Jaipur,1.0,Moderate,143,PM10
2016-03-27,Jaipur,1.0,Moderate,127,PM10
2016-03-30,Jaipur,1.0,Poor,276,PM2.5
2016-03-31,Jaipur,1.0,Poor,222,PM2.5
2016-04-01,Jaipur,1.0,Poor,222,PM2.5
2016-04-02,Jaipur,1.0,Poor,231,PM10
2016-04-03,Jaipur,1.0,Poor,207,PM2.5
2016-04-04,Jaipur,1.0,Moderate,159,PM10
2016-04-08,Jaipur,1.0,Moderate,144,PM10
2016-04-09,Jaipur,1.0,Moderate,149,PM10
2016-04-10,Jaipur,1.0,Moderate,145,PM10
2016-04-11,Jaipur,1.0,Moderate,148,PM10
2016-04-13,Jaipur,1.0,Moderate,136,PM10
2016-04-14,Jaipur,1.0,Moderate,170,PM10
2016-04-15,Jaipur,1.0,Moderate,143,PM10
2016-04-16,Jaipur,1.0,Moderate,160,PM10
2016-04-19,Jaipur,1.0,Poor,259,PM2.5
2016-04-20,Jaipur,1.0,Moderate,199,PM2.5
2016-04-21,Jaipur,1.0,Poor,297,PM2.5
2016-04-22,Jaipur,1.0,Poor,293,PM2.5
2016-04-23,Jaipur,1.0,Severe,450,O3
2016-04-24,Jaipur,1.0,Poor,285,O3
2016-04-25,Jaipur,1.0,Very Poor,301,PM2.5
2016-04-27,Jaipur,1.0,Poor,252,PM2.5
2016-04-28,Jaipur,1.0,Very Poor,330,O3
2016-04-29,Jaipur,1.0,Severe,450,O3
2016-04-30,Jaipur,1.0,Poor,258,PM2.5
2016-05-01,Jaipur,1.0,Poor,225,PM2.5
2016-05-02,Jaipur,1.0,Moderate,187,PM10
2016-05-03,Jaipur,1.0,Very Poor,313,PM10
2016-05-05,Jaipur,1.0,Poor,223,O3
2016-05-06,Jaipur,1.0,Moderate,176,PM10
2016-05-07,Jaipur,1.0,Moderate,171,PM2.5
2016-05-08,Jaipur,1.0,Poor,221,PM2.5
2016-05-09,Jaipur,1.0,Poor,204,PM2.5
2016-05-10,Jaipur,1.0,Moderate,169,PM10
2016-05-11,Jaipur,1.0,Moderate,197,PM2.5
2016-05-22,Jaipur,1.0,Poor,297,PM10
2016-05-23,Jaipur,1.0,Poor,265,PM10
2016-05-24,Jaipur,1.0,Poor,255,PM10
2016-05-25,Jaipur,1.0,Poor,223,PM10
2016-05-26,Jaipur,1.0,Poor,269,PM10
2016-05-27,Jaipur,1.0,Very Poor,309,PM10
2016-05-29,Jaipur,1.0,Moderate,173,PM10
2016-05-30,Jaipur,1.0,Moderate,189,PM10
2016-05-31,Jaipur,1.0,Moderate,196,PM10
2016-06-01,Jaipur,1.0,Moderate,180,PM10
2016-06-02,Jaipur,1.0,Moderate,168,PM10
2016-06-04,Jaipur,1.0,Moderate,156,PM10
2016-06-05,Jaipur,1.0,Moderate,167,PM10
2016-06-07,Jaipur,1.0,Poor,220,PM10
2016-06-08,Jaipur,1.0,Poor,235,PM10
2016-06-10,Jaipur,1.0,Poor,266,PM10
2016-06-11,Jaipur,1.0,Poor,228,PM2.5
2016-06-12,Jaipur,1.0,Poor,222,PM10
2016-06-13,Jaipur,1.0,Poor,299,PM10
2016-06-14,Jaipur,1.0,Poor,265,PM10
2016-06-15,Jaipur,1.0,Poor,204,PM10
2016-06-16,Jaipur,1.0,Poor,227,PM10
2016-06-17,Jaipur,1.0,Poor,219,PM10
2016-06-18,Jaipur,1.0,Poor,235,PM10
2016-06-19,Jaipur,1.0,Poor,230,PM2.5
2016-06-20,Jaipur,1.0,Moderate,195,PM2.5
2016-06-21,Jaipur,1.0,Moderate,164,PM2.5
2016-06-22,Jaipur,1.0,Moderate,180,PM2.5
2016-06-23,Jaipur,1.0,Poor,210,PM2.5
2016-06-24,Jaipur,1.0,Moderate,159,PM2.5
2016-06-28,Jaipur,1.0,Moderate,190,PM2.5
2016-06-29,Jaipur,1.0,Moderate,172,PM2.5
2016-06-30,Jaipur,1.0,Moderate,133,PM2.5
2016-07-01,Jaipur,1.0,Moderate,134,PM2.5
2016-07-02,Jaipur,1.0,Moderate,141,PM2.5
2016-07-03,Jaipur,1.0,Moderate,157,PM2.5
2016-07-05,Jaipur,1.0,Moderate,122,PM10
2016-07-06,Jaipur,1.0,Moderate,154,PM10
2016-07-07,Jaipur,1.0,Moderate,195,PM2.5
2016-07-08,Jaipur,1.0,Moderate,196,PM2.5
2016-07-09,Jaipur,1.0,Moderate,185,PM2.5
2016-07-10,Jaipur,1.0,Poor,222,PM2.5
2016-07-12,Jaipur,1.0,Poor,218,PM2.5
2016-07-13,Jaipur,1.0,Poor,249,PM2.5
2016-07-14,Jaipur,1.0,Moderate,172,PM2.5
2016-07-15,Jaipur,1.0,Moderate,198,PM2.5
2016-07-16,Jaipur,1.0,Moderate,172,PM2.5
2016-07-17,Jaipur,1.0,Moderate,163,PM2.5
2016-07-18,Jaipur,1.0,Moderate,156,PM2.5
2016-07-19,Jaipur,1.0,Moderate,135,PM2.5
2016-07-20,Jaipur,1.0,Moderate,138,PM10
2016-07-26,Jaipur,1.0,Poor,222,PM2.5
2016-07-27,Jaipur,1.0,Poor,216,PM2.5
2016-07-28,Jaipur,1.0,Poor,205,PM2.5
2016-07-29,Jaipur,1.0,Moderate,165,PM2.5
2016-07-30,Jaipur,1.0,Moderate,167,PM2.5
2016-07-31,Jaipur,1.0,Moderate,192,PM2.5
2016-08-01,Jaipur,1.0,Moderate,187,PM2.5
2016-08-02,Jaipur,1.0,Poor,220,PM2.5
2016-08-03,Jaipur,1.0,Moderate,182,PM2.5
2016-09-13,Jaipur,1.0,Moderate,107,PM10
2016-09-14,Jaipur,1.0,Moderate,108,PM10
2016-09-15,Jaipur,1.0,Moderate,109,PM10
2016-09-16,Jaipur,1.0,Moderate,121,PM10
2016-09-17,Jaipur,1.0,Moderate,122,PM10
2016-09-18,Jaipur,1.0,Moderate,123,PM10
2016-09-19,Jaipur,1.0,Satisfactory,94,PM10
2016-09-20,Jaipur,1.0,Moderate,101,PM10
2016-09-21,Jaipur,1.0,Moderate,117,PM10
2016-09-22,Jaipur,1.0,Moderate,112,PM10
2016-09-25,Jaipur,1.0,Satisfactory,81,PM10
2016-09-26,Jaipur,1.0,Satisfactory,95,PM10
2016-09-27,Jaipur,1.0,Moderate,183,PM10
2016-09-28,Jaipur,1.0,Satisfactory,91,PM10
2016-10-03,Jaipur,1.0,Satisfactory,76,PM10
2016-10-04,Jaipur,1.0,Satisfactory,92,PM10
2016-10-05,Jaipur,1.0,Satisfactory,74,PM10
2016-10-06,Jaipur,1.0,Satisfactory,95,CO
2016-10-07,Jaipur,1.0,Moderate,112,PM10
2016-10-08,Jaipur,1.0,Moderate,129,PM10
2016-10-09,Jaipur,1.0,Moderate,144,PM10
2016-10-10,Jaipur,1.0,Moderate,103,PM10
2016-10-11,Jaipur,1.0,Moderate,114,PM10
2016-10-12,Jaipur,1.0,Moderate,104,PM10
2016-10-19,Jaipur,1.0,Poor,211,PM2.5
2016-10-20,Jaipur,1.0,Moderate,161,PM2.5
2016-10-21,Jaipur,1.0,Moderate,151,PM2.5
2016-10-22,Jaipur,1.0,Moderate,165,PM2.5
2016-10-23,Jaipur,1.0,Moderate,190,PM2.5
2016-10-24,Jaipur,1.0,Moderate,165,PM2.5
2016-10-25,Jaipur,1.0,Moderate,130,PM2.5
2016-10-26,Jaipur,1.0,Moderate,174,PM2.5
2016-10-27,Jaipur,1.0,Poor,207,PM2.5
2016-10-28,Jaipur,1.0,Very Poor,306,PM2.5
2016-10-29,Jaipur,1.0,Poor,292,PM2.5
2016-10-30,Jaipur,1.0,Poor,290,PM2.5
2016-10-31,Jaipur,1.0,Poor,233,PM10
2016-11-01,Jaipur,1.0,Very Poor,342,PM2.5
2016-11-02,Jaipur,1.0,Poor,272,PM2.5
2016-11-03,Jaipur,1.0,Poor,254,PM10
2016-11-04,Jaipur,1.0,Poor,232,PM10
2016-11-05,Jaipur,1.0,Poor,227,PM10
2016-11-06,Jaipur,1.0,Poor,223,PM10
2016-11-07,Jaipur,1.0,Moderate,164,PM10
2016-11-08,Jaipur,1.0,Very Poor,376,PM2.5
2016-11-09,Jaipur,1.0,Very Poor,340,PM2.5
2016-11-10,Jaipur,1.0,Poor,269,PM2.5
2016-11-11,Jaipur,1.0,Poor,220,PM2.5
2016-11-12,Jaipur,1.0,Poor,201,PM2.5
2016-11-13,Jaipur,1.0,Poor,204,PM2.5
2016-11-14,Jaipur,1.0,Poor,222,PM2.5
2016-11-15,Jaipur,1.0,Poor,213,PM2.5
2016-11-16,Jaipur,1.0,Poor,254,PM2.5
2016-11-17,Jaipur,1.0,Poor,269,PM2.5
2016-11-18,Jaipur,1.0,Poor,282,PM2.5
2016-11-19,Jaipur,1.0,Poor,220,PM10
2016-11-20,Jaipur,1.0,Poor,251,PM2.5
2016-11-21,Jaipur,1.0,Poor,204,PM2.5
2016-11-22,Jaipur,1.0,Poor,282,PM2.5
2016-11-23,Jaipur,1.0,Poor,216,PM2.5
2016-11-24,Jaipur,1.0,Poor,267,PM2.5
2016-11-25,Jaipur,1.0,Poor,230,PM2.5
2016-11-26,Jaipur,1.0,Moderate,182,PM2.5
2016-11-27,Jaipur,1.0,Moderate,173,PM2.5
2016-11-28,Jaipur,1.0,Moderate,187,PM2.5
2016-11-29,Jaipur,1.0,Poor,264,PM2.5
2016-11-30,Jaipur,1.0,Moderate,148,PM10
2016-12-01,Jaipur,1.0,Moderate,173,PM2.5
2016-12-02,Jaipur,1.0,Poor,209,PM10
2016-12-03,Jaipur,1.0,Moderate,196,PM2.5
2016-12-04,Jaipur,1.0,Poor,232,O3
2016-12-05,Jaipur,1.0,Poor,281,PM2.5
2016-12-06,Jaipur,1.0,Very Poor,323,PM2.5
2016-12-07,Jaipur,1.0,Very Poor,315,PM2.5
2016-12-21,Jaipur,1.0,Poor,272,PM2.5
2016-12-22,Jaipur,1.0,Poor,269,PM2.5
2016-12-23,Jaipur,1.0,Very Poor,307,PM2.5
2016-12-24,Jaipur,1.0,Very Poor,340,PM2.5
2016-12-25,Jaipur,1.0,Poor,271,PM2.5
2016-12-26,Jaipur,1.0,Poor,291,PM2.5
2016-12-31,Jaipur,1.0,Moderate,143,PM2.5
2017-01-10,Jaipur,1.0,Poor,205,PM2.5
2017-01-11,Jaipur,1.0,Moderate,170,PM2.5
2017-01-12,Jaipur,1.0,Moderate,135,PM2.5
2017-01-13,Jaipur,1.0,Poor,294,PM2.5
2017-01-14,Jaipur,1.0,Poor,237,PM2.5
2017-01-15,Jaipur,1.0,Poor,271,PM2.5
2017-01-16,Jaipur,1.0,Poor,257,PM2.5
2017-01-17,Jaipur,1.0,Moderate,158,PM2.5
2017-01-18,Jaipur,1.0,Moderate,172,PM2.5
2017-01-19,Jaipur,1.0,Poor,240,PM2.5
2017-01-20,Jaipur,1.0,Moderate,147,PM2.5
2017-01-24,Jaipur,1.0,Poor,218,PM2.5
2017-01-25,Jaipur,1.0,Moderate,196,PM2.5
2017-01-26,Jaipur,1.0,Moderate,149,PM2.5
2017-01-27,Jaipur,1.0,Good,47,CO
2017-01-28,Jaipur,1.0,Moderate,101,PM2.5
2017-01-29,Jaipur,1.0,Moderate,172,PM2.5
2017-01-30,Jaipur,1.0,Moderate,148,PM2.5
2017-01-31,Jaipur,1.0,Moderate,127,PM2.5
2017-02-01,Jaipur,1.0,Moderate,174,PM2.5
2017-02-02,Jaipur,1.0,Moderate,117,PM2.5
2017-02-03,Jaipur,1.0,Moderate,148,PM2.5
2017-02-04,Jaipur,1.0,Moderate,129,PM2.5
2017-02-05,Jaipur,1.0,Satisfactory,75,PM2.5
2017-02-06,Jaipur,1.0,Moderate,151,PM2.5
2017-02-07,Jaipur,1.0,Moderate,138,PM2.5
2017-02-08,Jaipur,1.0,Moderate,188,PM2.5
2017-02-09,Jaipur,1.0,Moderate,123,PM2.5
2017-02-10,Jaipur,1.0,Moderate,163,PM2.5
2017-02-11,Jaipur,1.0,Moderate,176,PM2.5
2017-02-12,Jaipur,1.0,Moderate,151,PM2.5
2017-02-13,Jaipur,1.0,Poor,207,PM2.5
2017-02-14,Jaipur,1.0,Poor,233,PM2.5
2017-02-15,Jaipur,1.0,Poor,298,PM2.5
2017-02-16,Jaipur,1.0,Very Poor,310,PM2.5
2017-02-17,Jaipur,1.0,Poor,257,PM2.5
2017-02-18,Jaipur,1.0,Poor,204,PM2.5
2017-02-19,Jaipur,1.0,Moderate,164,O3
2017-02-20,Jaipur,1.0,Moderate,104,PM10
2017-02-21,Jaipur,1.0,Moderate,158,PM2.5
2017-02-22,Jaipur,1.0,Moderate,174,PM2.5
2017-02-25,Jaipur,1.0,Satisfactory,57,O3
2017-03-01,Jaipur,1.0,Moderate,165,PM10
2017-03-02,Jaipur,1.0,Moderate,195,PM2.5
2017-03-03,Jaipur,1.0,Moderate,103,PM2.5
2017-03-04,Jaipur,1.0,Moderate,106,PM10
2017-03-05,Jaipur,1.0,Moderate,120,PM10
2017-03-06,Jaipur,1.0,Moderate,130,PM2.5
2017-03-07,Jaipur,1.0,Moderate,125,PM10
2017-03-08,Jaipur,1.0,Moderate,125,PM10
2017-03-09,Jaipur,1.0,Poor,237,PM2.5
2017-03-10,Jaipur,1.0,Moderate,158,PM2.5
2017-03-11,Jaipur,1.0,Moderate,130,PM10
2017-03-12,Jaipur,1.0,Moderate,130,PM2.5
2017-03-13,Jaipur,1.0,Moderate,106,PM2.5
2017-03-18,Jaipur,1.0,Moderate,156,PM2.5
2017-03-19,Jaipur,1.0,Satisfactory,93,PM10
2017-03-20,Jaipur,1.0,Moderate,131,PM2.5
2017-03-21,Jaipur,1.0,Moderate,182,PM2.5
2017-03-22,Jaipur,1.0,Poor,208,PM2.5
2017-03-23,Jaipur,1.0,Poor,230,PM2.5
2017-03-25,Jaipur,1.0,Satisfactory,83,PM10
2017-03-26,Jaipur,1.0,Satisfactory,81,PM10
2017-03-27,Jaipur,1.0,Moderate,103,PM10
2017-03-28,Jaipur,1.0,Moderate,180,PM10
2017-03-29,Jaipur,1.0,Moderate,173,PM2.5
2017-03-30,Jaipur,1.0,Poor,277,PM2.5
2017-03-31,Jaipur,1.0,Poor,297,PM2.5
2017-04-01,Jaipur,1.0,Moderate,194,PM2.5
2017-04-02,Jaipur,1.0,Poor,211,PM2.5
2017-04-03,Jaipur,1.0,Poor,220,PM2.5
2017-04-04,Jaipur,1.0,Poor,206,PM2.5
2017-04-05,Jaipur,1.0,Moderate,169,PM2.5
2017-04-08,Jaipur,1.0,Moderate,191,PM10
2017-04-09,Jaipur,1.0,Moderate,142,PM10
2017-04-10,Jaipur,1.0,Satisfactory,99,PM10
2017-04-11,Jaipur,1.0,Satisfactory,84,PM2.5
2017-04-12,Jaipur,1.0,Moderate,153,PM2.5
2017-04-15,Jaipur,1.0,Satisfactory,81,PM10
2017-04-18,Jaipur,1.0,Moderate,108,PM2.5
2017-04-19,Jaipur,1.0,Satisfactory,86,PM2.5
2017-04-20,Jaipur,1.0,Satisfactory,95,PM2.5
2017-04-21,Jaipur,1.0,Moderate,152,PM2.5
2017-04-22,Jaipur,1.0,Satisfactory,84,PM10
2017-04-23,Jaipur,1.0,Moderate,140,PM10
2017-04-24,Jaipur,1.0,Poor,214,PM10
2017-04-25,Jaipur,1.0,Poor,264,PM2.5
2017-04-26,Jaipur,1.0,Poor,290,PM2.5
2017-04-27,Jaipur,1.0,Moderate,110,PM2.5
2017-04-28,Jaipur,1.0,Moderate,120,PM10
2017-04-29,Jaipur,1.0,Moderate,172,PM10
2017-04-30,Jaipur,1.0,Moderate,117,PM10
2017-05-01,Jaipur,1.0,Moderate,155,PM2.5
2017-05-02,Jaipur,1.0,Moderate,143,O3
2017-05-03,Jaipur,1.0,Moderate,115,PM2.5
2017-05-04,Jaipur,1.0,Poor,237,PM10
2017-05-05,Jaipur,1.0,Moderate,134,PM2.5
2017-05-06,Jaipur,1.0,Moderate,112,PM10
2017-05-07,Jaipur,1.0,Moderate,147,PM2.5
2017-05-08,Jaipur,1.0,Moderate,177,PM10
2017-05-10,Jaipur,1.0,Moderate,117,PM10
2017-05-11,Jaipur,1.0,Moderate,154,O3
2017-05-12,Jaipur,1.0,Moderate,184,PM10
2017-05-13,Jaipur,1.0,Moderate,174,PM2.5
2017-05-14,Jaipur,1.0,Moderate,114,PM10
2017-05-15,Jaipur,1.0,Satisfactory,99,PM10
2017-05-16,Jaipur,1.0,Poor,243,PM10
2017-05-18,Jaipur,1.0,Moderate,109,PM10
2017-05-19,Jaipur,1.0,Moderate,146,PM10
2017-05-20,Jaipur,1.0,Moderate,157,PM10
2017-05-21,Jaipur,1.0,Very Poor,303,PM10
2017-05-22,Jaipur,1.0,Satisfactory,98,PM2.5
2017-05-23,Jaipur,1.0,Satisfactory,92,PM10
2017-05-24,Jaipur,1.0,Moderate,113,PM10
2017-05-25,Jaipur,1.0,Moderate,109,PM10
2017-05-26,Jaipur,1.0,Moderate,131,PM10
2017-05-27,Jaipur,1.0,Moderate,128,PM10
2017-05-28,Jaipur,1.0,Moderate,139,PM10
2017-05-29,Jaipur,1.0,Moderate,123,PM10
2017-05-30,Jaipur,1.0,Satisfactory,76,PM10
2017-05-31,Jaipur,1.0,Moderate,123,PM10
2017-06-01,Jaipur,1.0,Satisfactory,64,PM2.5
2017-06-02,Jaipur,1.0,Moderate,139,PM10
2017-06-03,Jaipur,1.0,Moderate,144,PM10
2017-06-04,Jaipur,1.0,Moderate,176,PM10
2017-06-05,Jaipur,1.0,Satisfactory,97,PM10
2017-06-06,Jaipur,1.0,Satisfactory,90,PM10
2017-06-07,Jaipur,1.0,Moderate,139,PM10
2017-06-08,Jaipur,1.0,Moderate,101,PM10
2017-06-09,Jaipur,1.0,Satisfactory,70,PM2.5
2017-06-10,Jaipur,1.0,Satisfactory,91,PM10
2017-06-11,Jaipur,1.0,Moderate,135,PM2.5
2017-06-12,Jaipur,1.0,Satisfactory,83,O3
2017-07-12,Jaipur,1.0,Satisfactory,82,PM2.5
2017-07-13,Jaipur,1.0,Satisfactory,56,PM2.5
2017-07-14,Jaipur,1.0,Satisfactory,52,PM2.5
2017-07-15,Jaipur,1.0,Satisfactory,72,PM2.5
2017-07-16,Jaipur,1.0,Satisfactory,84,PM10
2017-07-17,Jaipur,1.0,Satisfactory,83,PM10
2017-07-20,Jaipur,1.0,Satisfactory,77,PM10
2017-07-26,Jaipur,1.0,Satisfactory,89,PM10
2017-07-28,Jaipur,1.0,Satisfactory,88,PM10
2017-08-03,Jaipur,1.0,Satisfactory,96,PM10
2017-08-04,Jaipur,1.0,Moderate,129,PM10
2017-08-05,Jaipur,1.0,Moderate,155,PM10
2017-08-06,Jaipur,1.0,Moderate,179,PM10
2017-08-07,Jaipur,1.0,Moderate,155,PM10
2017-08-08,Jaipur,1.0,Moderate,110,PM2.5
2017-08-09,Jaipur,1.0,Moderate,114,PM10
2017-08-10,Jaipur,1.0,Satisfactory,98,PM10
2017-08-11,Jaipur,1.0,Satisfactory,94,PM10
2017-08-12,Jaipur,1.0,Satisfactory,80,PM10
2017-08-13,Jaipur,1.0,Satisfactory,80,PM10
2017-08-14,Jaipur,1.0,Satisfactory,94,PM10
2017-08-15,Jaipur,1.0,Moderate,118,PM10
2017-08-16,Jaipur,1.0,Moderate,112,PM10
2017-08-22,Jaipur,1.0,Satisfactory,95,PM10
2017-08-23,Jaipur,1.0,Satisfactory,78,PM10
2017-08-24,Jaipur,1.0,Satisfactory,80,PM10
2017-08-25,Jaipur,1.0,Satisfactory,85,PM10
2017-08-26,Jaipur,1.0,Satisfactory,96,PM10
2017-08-27,Jaipur,1.0,Moderate,105,PM10
2017-08-30,Jaipur,1.0,Satisfactory,79,PM10
2017-08-31,Jaipur,1.0,Moderate,184,O3
2017-09-01,Jaipur,1.0,Moderate,139,PM10
2017-09-02,Jaipur,1.0,Very Poor,319,O3
2017-09-03,Jaipur,1.0,Satisfactory,78,PM10
2017-09-04,Jaipur,1.0,Satisfactory,96,PM10
2017-09-05,Jaipur,1.0,Moderate,101,PM10
2017-09-06,Jaipur,1.0,Moderate,113,PM10
2017-09-07,Jaipur,1.0,Moderate,117,PM10
2017-09-08,Jaipur,1.0,Very Poor,345,O3
2017-09-10,Jaipur,1.0,Very Poor,353,O3
2017-09-11,Jaipur,1.0,Moderate,115,O3
2017-09-12,Jaipur,1.0,Moderate,108,PM10
2017-09-13,Jaipur,1.0,Satisfactory,87,PM10
2017-09-14,Jaipur,1.0,Moderate,102,PM10
2017-09-15,Jaipur,1.0,Moderate,149,PM10
2017-09-16,Jaipur,1.0,Moderate,138,PM10
2017-09-17,Jaipur,1.0,Moderate,148,PM10
2017-09-18,Jaipur,1.0,Moderate,139,PM10
2017-09-19,Jaipur,1.0,Moderate,132,PM10
2017-09-20,Jaipur,1.0,Poor,255,O3
2017-09-23,Jaipur,1.0,Satisfactory,77,PM10
2017-09-24,Jaipur,1.0,Moderate,131,PM2.5
2017-09-27,Jaipur,1.0,Moderate,142,PM2.5
2017-09-29,Jaipur,1.0,Moderate,146,PM2.5
2017-09-30,Jaipur,1.0,Poor,204,PM2.5
2017-10-01,Jaipur,1.0,Moderate,191,PM2.5
2017-10-02,Jaipur,1.0,Moderate,105,PM2.5
2017-10-03,Jaipur,1.0,Moderate,134,PM2.5
2017-10-04,Jaipur,1.0,Moderate,197,PM2.5
2017-10-07,Jaipur,1.0,Moderate,170,PM2.5
2017-10-08,Jaipur,1.0,Moderate,197,PM2.5
2017-10-09,Jaipur,1.0,Poor,246,PM2.5
2017-10-10,Jaipur,1.0,Poor,210,PM2.5
2017-10-11,Jaipur,1.0,Poor,210,PM2.5
2017-10-12,Jaipur,1.0,Poor,212,PM2.5
2017-10-13,Jaipur,1.0,Poor,248,PM2.5
2017-10-15,Jaipur,1.0,Poor,254,PM2.5
2017-10-16,Jaipur,1.0,Poor,258,PM2.5
2017-10-17,Jaipur,1.0,Very Poor,316,PM2.5
2017-10-18,Jaipur,1.0,Very Poor,308,PM2.5
2017-10-20,Jaipur,1.0,Poor,263,PM2.5
2017-10-21,Jaipur,1.0,Very Poor,315,PM2.5
2017-10-22,Jaipur,1.0,Poor,276,PM2.5
2017-10-23,Jaipur,1.0,Poor,257,PM2.5
2017-10-24,Jaipur,1.0,Moderate,135,PM10
2017-10-25,Jaipur,2.0,Poor,256,PM2.5
2017-10-26,Jaipur,2.0,Poor,203,"O3, PM2.5"
2017-10-27,Jaipur,1.0,Poor,230,PM2.5
2017-10-28,Jaipur,1.0,Poor,236,PM2.5
2017-10-29,Jaipur,1.0,Moderate,189,PM2.5
2017-10-30,Jaipur,1.0,Moderate,163,PM10
2017-10-31,Jaipur,2.0,Poor,247,"PM10, PM2.5"
2017-11-01,Jaipur,2.0,Poor,270,"PM10, PM2.5"
2017-11-02,Jaipur,2.0,Moderate,194,"PM10, PM2.5"
2017-11-03,Jaipur,2.0,Moderate,143,"NO2, PM10"
2017-11-04,Jaipur,2.0,Poor,214,"PM10, PM2.5"
2017-11-05,Jaipur,3.0,Poor,241,"PM10, PM2.5"
2017-11-06,Jaipur,3.0,Poor,274,"O3, PM2.5"
2017-11-07,Jaipur,3.0,Poor,279,"O3, PM2.5"
2017-11-08,Jaipur,3.0,Poor,238,"O3, PM2.5"
2017-11-09,Jaipur,2.0,Moderate,193,"O3, PM2.5"
2017-11-10,Jaipur,3.0,Poor,262,"O3, PM2.5"
2017-11-11,Jaipur,3.0,Poor,262,"PM10, PM2.5"
2017-11-12,Jaipur,3.0,Poor,256,"PM10, PM2.5"
2017-11-13,Jaipur,2.0,Poor,286,PM2.5
2017-11-14,Jaipur,2.0,Moderate,181,PM2.5
2017-11-15,Jaipur,3.0,Poor,204,"O3, PM2.5"
2017-11-16,Jaipur,3.0,Poor,223,PM2.5
2017-11-17,Jaipur,3.0,Poor,247,PM2.5
2017-11-18,Jaipur,3.0,Moderate,198,PM2.5
2017-11-19,Jaipur,3.0,Poor,276,PM2.5
2017-11-20,Jaipur,3.0,Moderate,188,"O3, PM2.5"
2017-11-21,Jaipur,3.0,Moderate,159,"O3, PM2.5"
2017-11-22,Jaipur,3.0,Moderate,175,"O3, PM2.5"
2017-11-23,Jaipur,2.0,Moderate,155,"O3, PM10"
2017-11-24,Jaipur,3.0,Poor,227,"O3, PM2.5"
2017-11-25,Jaipur,3.0,Poor,228,PM2.5
2017-11-26,Jaipur,3.0,Poor,271,"PM10, PM2.5"
2017-11-27,Jaipur,3.0,Poor,266,"NO2, PM2.5"
2017-11-28,Jaipur,1.0,Poor,284,PM2.5
2017-11-29,Jaipur,3.0,Poor,225,"PM10, PM2.5"
2017-11-30,Jaipur,2.0,Poor,245,PM2.5
2017-12-01,Jaipur,2.0,Poor,239,O3
2017-12-02,Jaipur,2.0,Poor,284,"O3, PM2.5"
2017-12-03,Jaipur,2.0,Poor,241,"O3, PM10"
2017-12-04,Jaipur,2.0,Poor,280,PM2.5
2017-12-05,Jaipur,2.0,Poor,290,PM2.5
2017-12-06,Jaipur,3.0,Moderate,191,"PM10, PM2.5"
2017-12-07,Jaipur,3.0,Moderate,190,"PM10, PM2.5"
2017-12-08,Jaipur,3.0,Moderate,178,"PM10, PM2.5"
2017-12-09,Jaipur,3.0,Moderate,183,"PM10, PM2.5"
2017-12-10,Jaipur,2.0,Poor,227,"O3, PM2.5"
2017-12-11,Jaipur,2.0,Moderate,119,PM10
2017-12-12,Jaipur,1.0,Moderate,110,PM2.5
2017-12-13,Jaipur,2.0,Moderate,110,"PM10, PM2.5"
2017-12-14,Jaipur,2.0,Satisfactory,89,PM10
2017-12-15,Jaipur,2.0,Satisfactory,98,PM2.5
2017-12-16,Jaipur,2.0,Satisfactory,83,PM10
2017-12-17,Jaipur,1.0,Satisfactory,94,PM10
2017-12-18,Jaipur,2.0,Moderate,130,"O3, PM10"
2017-12-19,Jaipur,1.0,Moderate,150,PM10
2017-12-20,Jaipur,1.0,Moderate,170,PM10
2017-12-21,Jaipur,2.0,Moderate,133,"PM10, PM2.5"
2017-12-22,Jaipur,2.0,Satisfactory,84,"O3, PM10"
2017-12-23,Jaipur,2.0,Moderate,103,PM10
2017-12-24,Jaipur,2.0,Moderate,151,"PM10, PM2.5"
2017-12-25,Jaipur,2.0,Moderate,152,"PM10, PM2.5"
2017-12-26,Jaipur,2.0,Moderate,178,"PM10, PM2.5"
2017-12-27,Jaipur,2.0,Moderate,168,PM10
2017-12-28,Jaipur,2.0,Moderate,190,"PM10, PM2.5"
2017-12-29,Jaipur,2.0,Moderate,136,PM10
2017-12-30,Jaipur,3.0,Moderate,180,"PM10, PM2.5"
2017-12-31,Jaipur,3.0,Moderate,144,"PM10, PM2.5"
2018-01-01,Jaipur,3.0,Poor,223,"PM10, PM2.5"
2018-01-02,Jaipur,3.0,Poor,206,"PM10, PM2.5"
2018-01-03,Jaipur,3.0,Poor,225,"PM10, PM2.5"
2018-01-04,Jaipur,3.0,Moderate,194,"PM10, PM2.5"
2018-01-05,Jaipur,3.0,Moderate,174,"PM10, PM2.5"
2018-01-06,Jaipur,3.0,Poor,215,"PM10, PM2.5"
2018-01-07,Jaipur,3.0,Moderate,168,"PM10, PM2.5"
2018-01-08,Jaipur,3.0,Moderate,160,"PM10, PM2.5"
2018-01-09,Jaipur,3.0,Moderate,187,"PM10, PM2.5"
2018-01-10,Jaipur,3.0,Poor,226,"PM10, PM2.5"
2018-01-11,Jaipur,3.0,Poor,201,"PM10, PM2.5"
2018-01-12,Jaipur,3.0,Moderate,184,"PM10, PM2.5"
2018-01-13,Jaipur,3.0,Poor,243,"PM10, PM2.5"
2018-01-14,Jaipur,2.0,Moderate,169,"PM10, PM2.5"
2018-01-15,Jaipur,2.0,Moderate,167,"PM10, PM2.5"
2018-01-16,Jaipur,3.0,Moderate,152,"PM10, PM2.5"
2018-01-17,Jaipur,2.0,Satisfactory,95,"PM10, PM2.5"
2018-01-18,Jaipur,3.0,Moderate,135,"PM10, PM2.5"
2018-01-19,Jaipur,3.0,Moderate,190,"PM10, PM2.5"
2018-01-20,Jaipur,3.0,Poor,208,"PM10, PM2.5"
2018-01-21,Jaipur,3.0,Moderate,176,"PM10, PM2.5"
2018-01-22,Jaipur,3.0,Moderate,163,"PM10, PM2.5"
2018-01-23,Jaipur,3.0,Moderate,148,"PM10, PM2.5"
2018-01-24,Jaipur,3.0,Moderate,197,"PM10, PM2.5"
2018-01-25,Jaipur,3.0,Moderate,139,"PM10, PM2.5"
2018-01-26,Jaipur,3.0,Moderate,196,"PM10, PM2.5"
2018-01-27,Jaipur,3.0,Moderate,157,"PM10, PM2.5"
2018-01-28,Jaipur,3.0,Moderate,167,"PM10, PM2.5"
2018-01-29,Jaipur,2.0,Moderate,180,OZONE
2018-01-30,Jaipur,3.0,Poor,214,"PM10, PM2.5"
2018-01-31,Jaipur,3.0,Moderate,180,"PM10, PM2.5"
2018-02-01,Jaipur,1.0,Moderate,195,PM10
2018-02-02,Jaipur,1.0,Moderate,183,PM10
2018-02-03,Jaipur,3.0,Moderate,129,PM10
2018-02-04,Jaipur,3.0,Moderate,130,"OZONE, PM10, PM2.5"
2018-02-05,Jaipur,3.0,Moderate,150,"PM10, PM2.5"
2018-02-06,Jaipur,3.0,Poor,238,"PM10, PM2.5"
2018-02-07,Jaipur,3.0,Poor,205,"PM10, PM2.5"
2018-02-08,Jaipur,3.0,Moderate,147,"PM10, PM2.5"
2018-02-09,Jaipur,3.0,Moderate,140,"PM10, PM2.5"
2018-02-10,Jaipur,3.0,Moderate,147,"OZONE, PM10, PM2.5"
2018-02-11,Jaipur,3.0,Moderate,151,PM2.5
2018-02-12,Jaipur,2.0,Moderate,122,"PM10, PM2.5"
2018-02-13,Jaipur,3.0,Moderate,145,"PM10, PM2.5"
2018-02-14,Jaipur,3.0,Satisfactory,96,"OZONE, PM10, PM2.5"
2018-02-15,Jaipur,3.0,Moderate,126,"PM10, PM2.5"
2018-02-16,Jaipur,3.0,Moderate,165,"NO2, PM10, PM2.5"
2018-02-17,Jaipur,3.0,Moderate,183,"PM10, PM2.5"
2018-02-18,Jaipur,3.0,Poor,229,"PM10, PM2.5"
2018-02-19,Jaipur,3.0,Moderate,172,"OZONE, PM10, PM2.5"
2018-02-20,Jaipur,2.0,Moderate,150,PM10
2018-02-21,Jaipur,3.0,Poor,214,"PM10, PM2.5"
2018-02-22,Jaipur,3.0,Poor,219,"PM10, PM2.5"
2018-02-23,Jaipur,3.0,Poor,237,"PM10, PM2.5"
2018-02-24,Jaipur,3.0,Moderate,161,"PM10, PM2.5"
2018-02-25,Jaipur,3.0,Moderate,133,"PM10, PM2.5"
2018-02-26,Jaipur,3.0,Satisfactory,96,PM10